CW0608 Weather Reports


Display with metric or nautical units.
time (UTC)temp
F
wind
direction
speed
MPH
gust
MPH
rain 1hr
in
rain 24hr
in
rain mn
in
humidity
%
barometer
mb
20260510013304 58 103 2.0 3.0 0.00 0.00 0.00 86 1010.9
20260510012804 58 106 1.0 2.0 0.00 0.00 0.00 85 1010.9
20260510005804 59 81 1.0 3.0 0.00 0.00 0.00 84 1010.7
20260510003305 60 133 1.0 3.0 0.00 0.00 0.00 82 1010.4
20260510001304 61 63 2.0 3.0 0.00 0.00 0.00 80 1010.3
20260510000804 61 75 2.0 3.0 0.00 0.00 0.00 79 1010.3
20260510000305 62 68 2.0 3.0 0.00 0.00 0.00 78 1010.3
20260509235306 62 65 1.0 3.0 0.00 0.00 0.00 78 1010.2
20260509234304 63 74 2.0 3.0 0.00 0.00 0.00 77 1010.1
20260509232805 64 33 1.0 7.0 0.00 0.00 0.00 76 1010.1
20260509231804 64 41 2.0 8.0 0.00 0.00 0.00 75 1009.9
20260509230305 66 57 3.0 10.0 0.00 0.00 0.00 73 1009.7
20260509225804 66 59 2.0 5.0 0.00 0.00 0.00 73 1009.7
20260509225306 66 66 1.0 5.0 0.00 0.00 0.00 73 1009.6
20260509224804 66 58 2.0 5.0 0.00 0.00 0.00 73 1009.7
20260509223806 66 87 2.0 8.0 0.00 0.00 0.00 72 1009.7
20260509223305 66 49 3.0 8.0 0.00 0.00 0.00 71 1009.8
20260509222307 67 71 2.0 9.0 0.00 0.00 0.00 70 1009.7
20260509221804 67 5 3.0 9.0 0.00 0.00 0.00 69 1009.7
20260509220805 67 118 3.0 7.0 0.00 0.00 0.00 70 1009.8
20260509220304 67 45 3.0 9.0 0.00 0.00 0.00 70 1009.9
20260509214305 68 55 2.0 5.0 0.00 0.00 0.00 70 1009.9
20260509213805 68 13 2.0 3.0 0.00 0.00 0.00 69 1009.8
20260509213305 68 67 2.0 3.0 0.00 0.00 0.00 66 1009.8
20260509212306 68 44 1.0 3.0 0.00 0.00 0.00 68 1009.8
20260509211306 69 116 1.0 3.0 0.00 0.00 0.00 66 1009.6
20260509205806 69 215 2.0 7.0 0.00 0.00 0.00 66 1009.5
20260509205307 69 58 2.0 6.0 0.00 0.00 0.00 64 1009.6
20260509204304 70 212 4.0 7.0 0.00 0.00 0.00 64 1009.6
20260509203304 70 128 2.0 8.0 0.00 0.00 0.00 66 1009.5
20260509195306 69 133 1.0 5.0 0.00 0.00 0.00 62 1010.1
20260509194805 69 53 2.0 5.0 0.00 0.00 0.00 63 1010.2
20260509191804 68 86 1.0 3.0 0.00 0.00 0.00 63 1010.6
20260509190306 67 269 2.0 3.0 0.00 0.00 0.00 64 1010.5
20260509185306 68 294 2.0 6.0 0.00 0.00 0.00 62 1010.8
20260509183806 66 48 5.0 7.0 0.00 0.00 0.00 62 1011.0
20260509180805 64 312 1.0 3.0 0.00 0.00 0.00 69 1011.7
20260509174805 64 339 0.0 3.0 0.00 0.00 0.00 68 1011.7
20260509173305 64 339 1.0 5.0 0.00 0.00 0.00 67 1011.7
20260509172805 64 338 2.0 5.0 0.00 0.00 0.00 69 1011.7
20260509171805 64 261 1.0 3.0 0.00 0.00 0.00 67 1011.8
20260509170804 65 335 3.0 6.0 0.00 0.00 0.00 67 1011.8
20260509164805 67 241 3.0 7.0 0.00 0.00 0.00 64 1011.8
20260509164304 67 211 2.0 10.0 0.00 0.00 0.00 61 1011.9
20260509163804 67 200 5.0 10.0 0.00 0.00 0.00 61 1011.8
20260509162805 66 166 2.0 7.0 0.00 0.00 0.00 66 1011.9
20260509161304 64 144 3.0 7.0 0.00 0.00 0.00 64 1011.9
20260509160804 64 213 2.0 8.0 0.00 0.00 0.00 65 1012.1
20260509160306 64 165 3.0 8.0 0.00 0.00 0.00 64 1012.0
20260509154305 65 176 2.0 5.0 0.00 0.00 0.00 64 1011.8
20260509152806 65 7 2.0 7.0 0.00 0.00 0.00 65 1012.0
20260509150806 64 176 2.0 8.0 0.00 0.00 0.00 65 1012.3
20260509145806 63 150 1.0 8.0 0.00 0.00 0.00 67 1012.5
20260509142307 63 146 3.0 7.0 0.00 0.00 0.00 67 1012.5
20260509141805 63 156 3.0 7.0 0.00 0.00 0.00 65 1012.6
20260509141304 63 180 3.0 7.0 0.00 0.00 0.00 67 1012.6
20260509140805 62 169 4.0 7.0 0.00 0.00 0.00 68 1012.5
20260509134304 62 153 3.0 6.0 0.00 0.00 0.00 67 1012.5
20260509132804 62 133 5.0 8.0 0.00 0.00 0.00 67 1012.4
20260509132306 61 169 3.0 7.0 0.00 0.00 0.00 67 1012.4
20260509130804 61 146 5.0 12.0 0.00 0.00 0.00 67 1012.4
20260509122306 60 167 2.0 6.0 0.00 0.00 0.00 74 1012.3
20260509121804 59 147 1.0 5.0 0.00 0.00 0.00 73 1012.4
20260509120304 59 165 2.0 6.0 0.00 0.00 0.00 72 1012.5
20260509115307 59 150 1.0 6.0 0.00 0.00 0.00 71 1012.5
20260509114805 59 165 3.0 6.0 0.00 0.00 0.00 70 1012.5
20260509112809 58 158 2.0 5.0 0.00 0.00 0.00 72 1012.3
20260509111804 57 158 2.0 5.0 0.00 0.00 0.00 73 1012.3
20260509105306 55 139 0.0 1.0 0.00 0.00 0.00 78 1012.0
20260509104305 55 139 0.0 3.0 0.00 0.00 0.00 77 1012.0
20260509103805 55 139 0.0 2.0 0.00 0.00 0.00 77 1012.0
20260509102804 56 139 1.0 3.0 0.00 0.00 0.00 74 1012.1
20260509102306 55 139 1.0 3.0 0.00 0.00 0.00 74 1012.0
20260509101805 55 139 1.0 3.0 0.00 0.00 0.00 75 1012.0
20260509101304 55 138 0.0 3.0 0.00 0.00 0.00 74 1011.9
20260509095306 56 170 1.0 2.0 0.00 0.00 0.00 73 1011.9
20260509094805 56 179 0.0 3.0 0.00 0.00 0.00 73 1012.0
20260509094305 56 181 1.0 3.0 0.00 0.00 0.00 72 1011.9
20260509093304 56 144 2.0 8.0 0.00 0.00 0.00 71 1011.9
20260509091304 56 153 1.0 3.0 0.00 0.00 0.00 72 1012.0
20260509084804 56 143 2.0 3.0 0.00 0.00 0.00 71 1012.2
20260509082805 57 145 3.0 8.0 0.00 0.00 0.00 69 1012.4
20260509082307 57 157 5.0 8.0 0.00 0.00 0.00 69 1012.4
20260509080805 56 170 3.0 3.0 0.00 0.00 0.00 70 1012.5
20260509075805 56 169 1.0 5.0 0.00 0.00 0.00 70 1012.6
20260509075306 56 171 2.0 7.0 0.00 0.00 0.00 70 1012.5
20260509074805 56 142 3.0 8.0 0.00 0.00 0.00 70 1012.5
20260509074306 56 150 3.0 8.0 0.00 0.00 0.00 70 1012.5
20260509072306 56 156 4.0 6.0 0.00 0.00 0.00 70 1012.6
20260509071805 56 170 2.0 5.0 0.00 0.00 0.00 70 1012.6
20260509071305 56 168 2.0 7.0 0.00 0.00 0.00 71 1012.6
20260509070805 56 178 3.0 7.0 0.00 0.00 0.00 70 1012.7
20260509070305 56 171 2.0 7.0 0.00 0.00 0.00 71 1012.8
20260509065804 56 155 2.0 10.0 0.00 0.00 0.00 70 1012.8
20260509064806 56 154 2.0 8.0 0.00 0.00 0.00 70 1012.7
20260509064304 56 162 3.0 9.0 0.00 0.00 0.00 70 1012.7
20260509063804 56 159 4.0 9.0 0.00 0.00 0.00 70 1012.9
20260509062805 56 151 5.0 9.0 0.00 0.00 0.00 71 1012.9
20260509062306 56 168 4.0 8.0 0.00 0.00 0.00 71 1012.9
20260509060305 55 152 2.0 5.0 0.00 0.00 0.00 74 1013.2
20260509055804 55 165 3.0 5.0 0.00 0.00 0.00 75 1013.2
20260509055306 55 165 3.0 5.0 0.00 0.00 0.00 76 1013.2
20260509052804 54 150 2.0 5.0 0.00 0.00 0.00 82 1013.4
20260509052307 54 142 1.0 3.0 0.00 0.00 0.00 83 1013.4
20260509051304 54 142 1.0 5.0 0.00 0.00 0.00 83 1013.5
20260509045307 54 163 2.0 3.0 0.00 0.00 0.00 86 1013.5
20260509044804 54 163 1.0 3.0 0.00 0.00 0.00 87 1013.4
20260509044306 53 163 1.0 3.0 0.00 0.00 0.00 87 1013.5
20260509043305 54 163 0.0 1.0 0.00 0.00 0.00 87 1013.6
20260509040815 54 163 0.0 1.0 0.00 0.00 0.00 85 1013.7
20260509035306 55 163 0.0 2.0 0.00 0.00 0.00 83 1013.7
20260509034304 55 163 0.0 2.0 0.00 0.00 0.00 82 1013.7
20260509033804 55 163 0.0 2.0 0.00 0.00 0.00 81 1013.7
20260509032804 56 163 0.0 0.0 0.00 0.00 0.00 80 1013.7
20260509032306 56 163 0.0 0.0 0.00 0.00 0.00 79 1013.7
20260509031305 57 163 0.0 0.0 0.00 0.00 0.00 78 1013.8
20260509030305 57 163 0.0 0.0 0.00 0.00 0.00 76 1013.8
20260509025806 57 163 0.0 0.0 0.00 0.00 0.00 75 1013.9
20260509025307 58 163 0.0 0.0 0.00 0.00 0.00 74 1013.9
20260509024804 58 163 0.0 0.0 0.00 0.00 0.00 73 1013.9
20260509023804 59 163 0.0 2.0 0.00 0.00 0.00 72 1013.8
20260509021805 60 163 0.0 1.0 0.00 0.00 0.00 69 1013.9
20260509020804 61 163 0.0 1.0 0.00 0.00 0.00 68 1013.9
20260509020304 61 163 0.0 1.0 0.00 0.00 0.00 67 1013.7
20260509015804 61 163 0.0 2.0 0.00 0.00 0.00 67 1013.8
20260509014804 61 163 0.0 2.0 0.00 0.00 0.00 67 1013.8
20260509014305 61 163 0.0 5.0 0.00 0.00 0.00 65 1013.7